User: anonymous   Login
Location: Ladrillo (historical)
(32.8195°N, 117.2231°W)
Time: 13:45:34
(UTC+00:00)
Language:

Altair - Orbit

View from above orbital plane
View from above orbital plane
View from above satellite
View from above satellite

Ground track
Ground track

The orbit data is extracted from the following two-line orbital elements,

1 00050U 60009B   21128.87511102 -.00000053  00000-0  29935-3 0  9999
2 00050  47.2299 191.2700 0114454 215.7083 143.6010 12.20117222709950
Epoch (UTC): 08 May 2021 21:00:09
Eccentricity: 0.0114454
inclination: 47.2299°
perigee height: 1501 km
apogee height: 1683 km
right ascension of ascending node: 191.2700°
argument of perigee: 215.7083°
revolutions per day: 12.20117222
mean anomaly at epoch: 143.6010°
orbit number at epoch: 70995

The dashed part of the orbit path shows where the satellite is in the earth's shadow,  

DLR